Regional Weather Roundup
Issued by NWS

Home | Current Version | Previous Version | Graphics & Text | Print | Product List | Glossary On
Versions: 1 2 3 4 5 6 7 8 9 10 11 12 13 14 15 16 17 18 19 20 21 22 23 24 25 26 27 28 29 30 31 32 33 34 35 36 37 38 39 40 41 42 43 44 45 46 47 48 49 50
000
ASUS43 KMKX 290800
RWRWI

WISCONSIN REGIONAL WEATHER ROUNDUP
NATIONAL WEATHER SERVICE MILWAUKEE/SULLIVAN WI
300 AM CDT FRI MAY 29 2015

NOTE: "FAIR" INDICATES FEW OR NO CLOUDS BELOW 12,000 FEET WITH NO
SIGNIFICANT WEATHER AND/OR OBSTRUCTIONS TO VISIBILITY.

WIZ001-002-006>008-014>016-023>028-290900-
NORTHWEST WISCONSIN

CITY           SKY/WX    TMP DP  RH WIND       PRES   REMARKS
SUPERIOR ARPT  CLOUDY    41  41  99 CALM      29.90F
ASHLAND        PTCLDY    46  45  96 CALM      29.90F
HAYWARD        PTCLDY    66  53  63 S9        29.91F
SIREN          PTCLDY    66  54  65 S5        29.90S
CUMBERLAND     LGT RAIN  63  55  77 S12       29.93F
RICE LAKE      RAIN      64  57  79 SE9       29.96F
CHETEK         DRIZZLE   62  58  86 E6        29.95F
LADYSMITH      LGT RAIN  65  54  68 SW12G18   29.99F
EAU CLAIRE     NOT AVBL
MENOMONIE      LGT RAIN  64  61  90 E3        29.95F
NEW RICHMOND   DRIZZLE   66  56  71 SE10      29.91F
OSCEOLA        MOCLDY    67  57  70 SE10      29.91F
$$

WIZ003>005-009-010-017-018-290900-
NORTH CENTRAL WISCONSIN

CITY           SKY/WX    TMP DP  RH WIND       PRES   REMARKS
MANITOWISH WTR CLOUDY    62  56  80 S8        29.98F
ARBOR VITAE    CLOUDY    63  55  76 S6        29.99F
WOODRUFF       CLOUDY    63  55  76 S6        29.99F
RHINELANDER    CLOUDY    64  53  67 S6        30.01F
EAGLE RIVER    CLOUDY    62  52  70 S5        30.01S
LAND O LAKES   CLOUDY    63  54  71 S6        30.01F
PHILLIPS       PTCLDY    65  54  66 S10G16    29.98S
TOMAHAWK       CLOUDY    59  54  84 CALM      30.01F
MEDFORD        CLOUDY    62  56  80 S8        30.01R
MERRILL        CLOUDY    62  56  79 CALM      30.01F
$$

WIZ029-030-035-036-043>047-290900-
CENTRAL WISCONSIN

CITY           SKY/WX    TMP DP  RH WIND       PRES   REMARKS
WAUSAU         CLOUDY    64  55  72 S5        29.99F
MOSINEE        CLOUDY    63  55  77 SE7       30.02F
MARSHFIELD     LGT RAIN  64  56  75 SW3       29.99F
STEVENS POINT  CLOUDY    65  54  66 S7        30.02F
WAUPACA        CLOUDY    65  55  67 CALM      30.02F
WAUTOMA        NOT AVBL
WISC RAPIDS    CLOUDY    66  54  65 SE3       30.01F
CAMP DOUGLAS   DRIZZLE   66  63  88 S5        29.99S
$$

WIZ011>013-019>022-031-037>040-048>050-290900-
NORTHEAST WISCONSIN

CITY           SKY/WX    TMP DP  RH WIND       PRES   REMARKS
ANTIGO         CLOUDY    59  56  88 S8        30.03F
SHAWANO        CLOUDY    65  54  66 CALM      30.03S
OCONTO         CLOUDY    65  56  72 S7        30.03F
STURGEON BAY   CLOUDY    61  52  72 S10       30.07F
GREEN BAY      CLOUDY    67  56  67 S10       30.03F
MANITOWOC      NOT AVBL
APPLETON       CLOUDY    66  52  59 SE13      30.03F
CLINTONVILLE   CLOUDY    63  54  72 S3        30.02F
OSHKOSH        CLOUDY    65  55  70 S7        30.01F
$$

WIZ032>034-041-042-053>061-290900-
SOUTHWEST WISCONSIN

CITY           SKY/WX    TMP DP  RH WIND       PRES   REMARKS
LA CROSSE      LGT RAIN  65  60  84 E7        29.96F
SPARTA         LGT RAIN  60  58  93 CALM      30.00R
VIROQUA        CLOUDY    64  57  79 S8        30.01S
BOSCOBEL       LGT RAIN  63  60  90 CALM      30.00F
PRAIRIE DU CHI RAIN      64  59  85 E5        29.99F
PLATTEVILLE    CLOUDY    64  60  84 SE5       30.02F
$$

WIZ056-057-062-063-064-067-068-290900-
SOUTH CENTRAL WISCONSIN

CITY           SKY/WX    TMP DP  RH WIND       PRES   REMARKS
REEDSBURG      LGT RAIN  64  58  81 S9        30.03R
BARABOO/DELLS  CLOUDY    66  55  66 S8        30.00F
LONE ROCK      NOT AVBL
MINERAL POINT  LGT RAIN  64  55  72 SE5       30.03F
MADISON        CLOUDY    69  55  60 S7        30.01F
MIDDLETON      CLOUDY    69  53  57 S3        30.02S
WATERTOWN      CLOUDY   N/A N/A N/A SE6       30.02F
MONROE         CLOUDY    66  55  68 S8        30.02F
JANESVILLE     CLOUDY    66  54  63 SE6       30.01F
$$

WIZ051-052-058>065-066-070>072-290900-
SOUTHEAST WISCONSIN

CITY           SKY/WX    TMP DP  RH WIND       PRES   REMARKS
MILWAUKEE      CLOUDY    62  53  72 SE9       30.04F
WAUKESHA       CLOUDY    64  54  68 SE6       30.05F
MILWAUKEE/TIMM CLOUDY    64  52  63 SE6       30.05F
RACINE         CLOUDY    61  53  75 S7        30.06F
BURLINGTON     CLOUDY    57  54  88 CALM      30.04F
KENOSHA        CLOUDY    64  56  75 SE8       30.04F
FOND DU LAC    CLOUDY    67  56  67 S12       30.02F
SHEBOYGAN      CLOUDY    59  53  80 S3        30.05F
WEST BEND      CLOUDY    63  54  72 CALM      30.05F
JUNEAU         CLOUDY    64  55  71 SE9       30.04F
$$

LSZ147-162-290900-
LAKE SUPERIOR

STATION/POSITION TIME  TEMP    WIND        PRES    WAVE
                       AIR SEA DIR/SP/G            HT/PER
                 (UTC) (F)     (DEG/KT/KT) (MB)    (FT/S)
W MID LAKE BUOY  0650   38 37  250/  2/  2   N/A     1/ 4
DEVILS ISLAND    0700   41      40/  2/  2   N/A
PORT WING        0700   40      90/  1/  2   N/A
SAXON HARBOR     0740   49        CALM       N/A
$$

LMZ867-665-643>646-290900-
LAKE MICHIGAN

STATION/POSITION TIME  TEMP    WIND        PRES    WAVE
                       AIR SEA DIR/SP/G            HT/PER
                 (UTC) (F)     (DEG/KT/KT) (MB)    (FT/S)
CHAMBERS ISLAND  0700   60     150/  3/  5   N/A
N MID LAKE BUOY  0650   45 36  180/  2/  2   N/A     1/ 4
NORTHPORT PIER   0700   59     170/  5/  8   N/A
SISTER BAY       0718   57     160/ 12/ 17   N/A
ALGOMA LAKESHORE 0723          210/  4/  5   N/A
KEWAUNEE LAKESHO 0700   52     180/  3/  7   N/A
SHEBOYGAN LAKESH 0700   57     190/  6/  7   N/A
PORT WASHINGTON  0740   55      CALM  /  1   N/A
ATWATER BUOY     0700   55     150/  4/  4   N/A
MILWAUKEE LAKESH 0700   59     100/  3/  3   N/A
S MID LAKE BUOY  0650   47 38  130/ 10/ 10   N/A     0
KENOSHA   LAKESH 0700   55     130/  3/  3   N/A
$$

TC  - TEMPERATURE IN CELSIUS
VSB - VISIBILITY IN STATUTE MILES
WCI - WIND CHILL INDEX
HX  - HEAT INDEX




USA.gov is the U.S. government's official web portal to all federal, state and local government web resources and services.